Location: Fensholt
(55.9856°N, 10.0808°E)
Time: 20:46:47
(UTC+00:00)

Cosmos 1400 Rocket - Pass Details

Date: 05 October 2020
Orbit: 521 x 568 km, 81.2° (Epoch: 29 October)

Event Time Altitude Azimuth Distance (km) Brightness Sun altitude
Exits shadow 21:19:26 10° 10° (N) 1,878 6.0 -34.8°
Drops below altitude 10° 21:19:27 10° 10° (N) 1,882 6.0 -34.8°
Sets 21:21:40 0° 14° (NNE) 2,786 6.9 -35.0°
